Hourly Weather Roundup
Issued by NWS Central Illinois

Home | Current Version | Previous Version | Text Only | Print | Product List | Glossary Off
Versions: 1 2 3 4 5 6 7 8 9 10 11 12 13 14 15 16 17 18 19 20 21 22 23 24 25 26 27 28 29 30 31 32 33 34 35 36 37 38 39 40 41 42 43 44 45 46 47 48 49 50

000
NZUS43 KILX 132210
HWRILX

AREA WEATHER ROUNDUP
NATIONAL WEATHER SERVICE, LINCOLN IL
400 PM CST SAT FEB 13 2016


CITY           SKY/WX    TMP DP  RH WIND       PRES   REMARKS
BLOOMINGTON    SUNNY     19  -3  38 N5        30.53F WCI  12
CHAMPAIGN      CLOUDY    19   0  43 NW9       30.54S WCI   8
DANVILLE       SUNNY     17   1  50 W5        30.51F WCI  10
DECATUR        MOSUNNY   21  -1  38 N5        30.54F WCI  15
EFFINGHAM      MOSUNNY   21   4  47 CALM      30.57S
FLORA          SUNNY     24   0  36 N5        30.56F WCI  18
GALESBURG      CLOUDY    19  -4  35 NE5       30.52F WCI  12
JACKSONVILLE   MOSUNNY   22   2  43 E3        30.54S
LACON          CLOUDY    19  -6  32 NW3       30.54F
LAWRENCEVILLE  SUNNY     22  -3  33 N10       30.56F WCI  11
LITCHFIELD     PTSUNNY   19   1  45 N6        30.55R WCI  10
$$


CITY           SKY/WX    TMP DP  RH WIND       PRES   REMARKS
LINCOLN        MOSUNNY   20  -1  40 NE3       30.55S
MACOMB         CLOUDY    19  -3  37 CALM      30.56S
MATTOON        MOSUNNY   19   0  43 N8        30.54S WCI   9
MT CARMEL AP   SUNNY     23  -4  30 NW6       30.55F WCI  16
OLNEY-NOBLE AP SUNNY     21   1  42 N6        30.56F WCI  14
PARIS          MOSUNNY   19   1  45 NW6       30.55F WCI  11
PEORIA         CLOUDY    20  -6  31 CALM      30.54F
PONTIAC        MOSUNNY   20  -2  38 NW6       30.54F WCI  12
RANTOUL        SUNNY     21   1  42 N7        30.53F WCI  13
ROBINSON       SUNNY     19  -1  41 NW6       30.57F WCI  11
SPRINGFIELD    CLOUDY    21   0  39 CALM      30.55F
TAYLORVILLE    MOSUNNY   19   1  45 NE3       30.55S
$$

...REGIONAL REPORTS...


CITY           SKY/WX    TMP DP  RH WIND       PRES   REMARKS
CHICAGO O`HARE MOSUNNY   16  -5  39 NW8       30.52F WCI   5
KANKAKEE       SUNNY     18  -3  39 NW8       30.54S WCI   8
MOLINE         MOSUNNY   18  -7  32 S3        30.53F
MOUNT STERLING CLOUDY    18   1  47 CALM      30.53S
MOUNT VERNON   CLOUDY    23   3  42 CALM      30.55S
PITTSFIELD     PTSUNNY   20   1  44 CALM      30.55F
QUINCY         CLOUDY    17  -2  43 N5        30.53F WCI  10
ROCKFORD       MOSUNNY   16  -6  37 NW6       30.54F WCI   7
$$


CITY           SKY/WX    TMP DP  RH WIND       PRES   REMARKS
BURLINGTON     PTSUNNY   19  -1  41 SE5       30.52F WCI  12
CEDAR RAPIDS   CLOUDY    16  -4  41 SE5       30.48F WCI   9
DES MOINES     CLOUDY    14  -2  49 SE10      30.46F WCI   1
KIRKSVILLE     CLOUDY    18   1  47 E10       30.47F WCI   6
OTTUMWA        CLOUDY    16   2  54 SE9       30.49F WCI   4
ST LOUIS       CLOUDY    24  -2  32 CALM      30.54F
$$


CITY           SKY/WX    TMP DP  RH WIND       PRES   REMARKS
TERRE HAUTE    MOSUNNY   19  -1  41 NW6       30.55S WCI  11
EVANSVILLE     SUNNY     26   0  32 N9        30.56S WCI  17
INDIANAPOLIS   MOSUNNY   19  -5  34 NW7       30.50S WCI  10
LAFAYETTE      SUNNY     18  -5  36 W12       30.53S WCI   5
MADISON        PTSUNNY   12  -8  40 NW5       30.51F WCI   4
MILWAUKEE      MOSUNNY   12  -8  40 VRB7      30.52S WCI   1
$$





USA.gov is the U.S. government's official web portal to all federal, state and local government web resources and services.